Location: Hodgeman (historical)
(38.2378°N, 99.6740°W)
Time: 17:44:34
(UTC+00:00)

Daily predictions for brighter satellites

Satellite Brightness Start Highest point End
(mag) Time Altitude Azimuth Time Altitude Azimuth Time Altitude Azimuth
STARLINK-1161 2.6 12:01:58 36° WNW 12:02:56 68° SW 12:05:50 10° SE
STARLINK-1145 2.6 12:02:11 36° WNW 12:03:10 67° SW 12:06:04 10° SE
STARLINK-1172 2.6 12:02:23 36° WNW 12:03:23 67° SW 12:06:16 10° SE
STARLINK-1182 2.6 12:02:49 35° WNW 12:03:50 66° SW 12:06:44 10° SE
STARLINK-1140 3.2 12:01:44 22° NW 12:03:58 88° NE 12:07:32 10° SE
STARLINK-1164 2.6 12:03:02 35° WNW 12:04:04 66° SW 12:06:57 10° SE
STARLINK-1168 2.6 12:03:16 35° WNW 12:04:18 65° SW 12:07:11 10° SE
STARLINK-1183 2.6 12:03:54 34° WNW 12:04:57 64° SW 12:07:51 10° SE
STARLINK-1181 2.6 12:04:08 34° WNW 12:05:12 63° SW 12:08:05 10° SE
OAO 2 Rocket 4.1 12:01:59 17° SW 12:05:47 47° SSE 12:10:51 10° E
STARLINK-1196 2.7 12:04:45 32° WNW 12:05:51 62° SW 12:08:45 10° SE
STARLINK-1186 2.7 12:05:13 32° WNW 12:06:19 61° SW 12:09:11 10° SE
STARLINK-1185 2.7 12:05:25 32° WNW 12:06:32 61° SW 12:09:25 10° SE
STARLINK-1175 2.7 12:05:38 32° WNW 12:06:46 60° SW 12:09:39 10° SE
STARLINK-1147 2.7 12:05:51 31° WNW 12:06:59 60° SW 12:09:51 10° SE
STARLINK-1156 3.1 12:04:47 20° NW 12:07:08 86° SW 12:10:43 10° SE
STARLINK-1146 2.7 12:06:03 31° WNW 12:07:12 59° SW 12:10:05 10° SE
STARLINK-1152 2.7 12:06:16 31° WNW 12:07:26 59° SW 12:10:19 10° SE
STARLINK-1195 2.7 12:06:29 31° WNW 12:07:39 59° SW 12:10:32 10° SE
FENGYUN 3A 3.6 12:02:26 10° N 12:07:53 74° WNW 12:13:16 10° SSW
STARLINK-1137 2.7 12:06:43 30° WNW 12:07:53 58° SW 12:10:45 10° SE
Cosmos 1862 4.1 12:04:36 10° NNW 12:08:04 29° W 12:11:32 10° SSW
STARLINK-1142 2.7 12:06:56 30° WNW 12:08:06 58° SW 12:10:58 10° SE
STARLINK-1127 2.7 12:07:09 30° WNW 12:08:20 57° SW 12:11:12 10° SE
STARLINK-1184 2.7 12:07:22 30° WNW 12:08:33 57° SW 12:11:26 10° SE
STARLINK-1193 2.8 12:07:35 30° WNW 12:08:46 56° SW 12:11:39 10° SE
STARLINK-1194 2.8 12:07:47 29° WNW 12:09:00 56° SW 12:11:51 10° SE
Meteor 1-31 Rocket 3.9 12:07:04 10° NNW 12:10:05 22° WNW 12:10:40 21° W
STARLINK-1148 3.1 12:07:51 19° NW 12:10:19 80° SW 12:13:53 10° SE
Cosmos 1346 Rocket 2.6 12:07:56 10° N 12:11:49 86° W 12:15:43 10° S
Cosmos 2228 Rocket 4.1 12:07:41 10° SSE 12:11:57 51° E 12:16:16 10° NNE
Cosmos 2233 Rocket 4.0 12:06:07 10° N 12:12:27 86° W 12:18:46 10° S
STARLINK-1158 3.1 12:10:54 17° NW 12:13:30 74° SW 12:17:04 10° SE
Cosmos 1340 2.6 12:09:58 10° NNW 12:13:40 59° W 12:17:21 10° S
STARLINK-1170 3.3 12:13:33 27° W 12:14:26 34° SW 12:16:59 10° SSE
MOS 1-B 4.3 12:09:17 10° NNE 12:15:07 82° WNW 12:20:55 10° SSW
STARLINK-1162 3.2 12:15:16 16° WNW 12:17:54 63° SW 12:21:22 10° SE
Sich 1 4.1 12:14:56 10° NW 12:18:20 23° W 12:21:44 10° SW
PSLV R/B 4.1 12:15:57 10° N 12:19:36 43° WNW 12:23:19 10° SW
STARLINK-1157 3.2 12:18:04 15° WNW 12:20:46 58° SW 12:24:14 10° SE
STARLINK-1159 3.3 12:20:58 14° WNW 12:23:48 54° SW 12:27:14 10° SSE
ADEOS Rocket 3.7 12:19:39 10° SSE 12:26:05 70° ENE 12:33:17 10° N
STARLINK-1171 3.4 12:23:55 13° WNW 12:26:52 50° SW 12:30:16 10° SSE
Cosmos 1151 Rocket 3.6 12:23:23 10° SW 12:27:20 34° WNW 12:31:21 10° NNW
STARLINK-1155 3.5 12:26:45 12° WNW 12:29:49 46° SW 12:33:12 10° SSE
USA 267 3.6 12:23:57 10° SSE 12:30:12 48° SW 12:36:30 10° NW
COSMOS 2455 3.3 12:26:47 10° NNW 12:32:48 68° ENE 12:38:46 10° SE
STARLINK-1166 3.6 12:29:42 11° WNW 12:32:53 43° SW 12:36:14 10° SSE
STARLINK-1165 3.8 12:32:37 10° WNW 12:35:54 40° SW 12:39:13 10° SSE
Cosmos 1782 3.1 12:32:19 10° S 12:36:19 73° E 12:40:21 10° NNE
PAYLOAD B 4.2 12:31:54 10° N 12:37:23 64° WNW 12:42:49 10° SSW
Cosmos 1470 Rocket 3.8 12:33:43 10° NNW 12:38:02 47° W 12:42:19 10° SSW
STARLINK-1169 3.9 12:35:38 10° WNW 12:38:55 37° SW 12:42:12 10° SSE
USA 116 3.4 12:38:42 10° S 12:41:41 46° W 12:44:43 10° NNW
STARLINK-1178 4.0 12:38:42 10° WNW 12:41:56 34° SW 12:45:09 10° SSE
NOSS 3-4 (A) 4.0 12:34:52 10° NNW 12:42:04 87° WSW 12:49:57 10° SSE
NOSS 3-4 (C) 4.0 12:34:58 10° NNW 12:42:11 88° SW 12:50:02 10° SSE
STARLINK-1120 4.1 12:41:42 10° WNW 12:44:53 32° SW 12:48:04 10° SSE
Cosmos 1814 Rocket 4.0 12:40:51 10° NNW 12:46:06 75° WSW 12:51:23 10° S
DELTA 2 R/B (1) 3.7 12:40:57 10° WNW 12:46:32 77° SSW 12:52:06 10° ESE
ISS -1.3 12:45:44 10° NNW 12:46:50 11° NNW 12:47:57 10° N
STARLINK-1131 4.2 12:44:48 10° WNW 12:47:56 30° SW 12:51:03 10° SSE
STARLINK-1241 4.3 12:45:55 10° SSW 12:48:25 33° SE 12:50:55 10° ENE
STARLINK-1241 4.3 12:46:16 10° SSW 12:48:40 32° SE 12:51:02 10° ENE
STARLINK-1239 4.2 12:46:51 10° SSW 12:49:22 34° SE 12:51:53 10° ENE
Meteor 1-25 Rocket 4.2 12:44:24 10° NNW 12:49:55 68° W 12:55:26 10° S
Atlas Centaur 2 3.8 12:46:56 10° WSW 12:54:24 45° S 13:02:24 10° ESE
